When you browse on this site, cookies collect data to enhance your experience and personalize the content and advertising you see.
Visit our Privacy Policy to learn more. By continuing to use the site, you agree to this use of cookies and data.
EN

Hourly Weather Montana

Today, 15 July, Wednesday

Time Temperature Precipitation Wind Pressure Humidity
00:00 +19°C° 0 mm 1 mps 734 mmHg 72%
01:00 +19°C° 0 mm 1 mps 734 mmHg 72%
02:00 +18°C° 0 mm 2 mps 734 mmHg 76%
03:00 +17°C° 0 mm 2 mps 734 mmHg 75%
04:00 +17°C° 0 mm 2 mps 733 mmHg 75%
05:00 +16°C° 0 mm 1 mps 733 mmHg 74%
06:00 +19°C° 0 mm 1 mps 734 mmHg 71%
07:00 +20°C° 0 mm 1 mps 734 mmHg 68%
08:00 +22°C° 0 mm 1 mps 734 mmHg 65%
09:00 +23°C° 0.1 mm 1 mps 734 mmHg 63%
10:00 +24°C° 0.1 mm 1 mps 734 mmHg 60%
11:00 +26°C° 0.1 mm 1 mps 734 mmHg 58%
12:00 +26°C° 0.4 mm 1 mps 733 mmHg 56%
13:00 +27°C° 0.4 mm 1 mps 733 mmHg 55%
14:00 +28°C° 0.4 mm 1 mps 733 mmHg 53%
15:00 +27°C° 0.7 mm 1 mps 733 mmHg 56%
16:00 +27°C° 0.7 mm 1 mps 732 mmHg 60%
17:00 +26°C° 0.7 mm 1 mps 732 mmHg 64%
18:00 +24°C° 0.1 mm 1 mps 732 mmHg 68%
19:00 +23°C° 0.1 mm 2 mps 732 mmHg 73%
20:00 +21°C° 0.1 mm 2 mps 732 mmHg 78%
21:00 +20°C° 0 mm 2 mps 732 mmHg 78%
22:00 +20°C° 0 mm 2 mps 732 mmHg 79%
23:00 +19°C° 0 mm 2 mps 732 mmHg 79%

Tomorrow, 16 July, Thursday

Time Temperature Precipitation Wind Pressure Humidity
00:00 +19°C° 0.2 mm 2 mps 732 mmHg 80%
01:00 +20°C° 0.2 mm 1 mps 732 mmHg 80%
02:00 +20°C° 0.2 mm 1 mps 732 mmHg 81%
03:00 +20°C° 0.6 mm 1 mps 732 mmHg 83%
04:00 +19°C° 0.6 mm 1 mps 732 mmHg 85%
05:00 +19°C° 0.6 mm 1 mps 732 mmHg 87%
06:00 +19°C° 0.8 mm 1 mps 732 mmHg 86%
07:00 +20°C° 0.8 mm 1 mps 732 mmHg 86%
08:00 +21°C° 0.8 mm 1 mps 732 mmHg 85%
09:00 +22°C° 0.6 mm 1 mps 732 mmHg 80%
10:00 +23°C° 0.6 mm 1 mps 732 mmHg 75%
11:00 +25°C° 0.6 mm 1 mps 732 mmHg 70%
12:00 +25°C° 0.7 mm 1 mps 732 mmHg 66%
13:00 +26°C° 0.7 mm 1 mps 732 mmHg 63%
14:00 +26°C° 0.7 mm 1 mps 732 mmHg 60%
15:00 +26°C° 0.4 mm 1 mps 732 mmHg 61%
16:00 +26°C° 0.4 mm 2 mps 731 mmHg 61%
17:00 +26°C° 0.4 mm 2 mps 731 mmHg 61%
18:00 +24°C° 0.3 mm 2 mps 731 mmHg 67%
19:00 +23°C° 0.3 mm 1 mps 731 mmHg 73%
20:00 +21°C° 0.3 mm 1 mps 732 mmHg 79%
21:00 +21°C° 0 mm 1 mps 732 mmHg 79%
22:00 +20°C° 0 mm 1 mps 732 mmHg 79%
23:00 +19°C° 0 mm 1 mps 732 mmHg 79%

Day after tomorrow, 17 July, Friday

Time Temperature Precipitation Wind Pressure Humidity
00:00 +19°C° 0 mm 1 mps 732 mmHg 79%
01:00 +19°C° 0 mm 1 mps 732 mmHg 79%
02:00 +19°C° 0 mm 1 mps 732 mmHg 79%
03:00 +18°C° 0 mm 1 mps 732 mmHg 81%
04:00 +18°C° 0 mm 1 mps 732 mmHg 83%
05:00 +16°C° 0 mm 1 mps 731 mmHg 85%
06:00 +19°C° 0 mm 1 mps 732 mmHg 81%
07:00 +20°C° 0 mm 1 mps 732 mmHg 77%
08:00 +22°C° 0 mm 1 mps 732 mmHg 73%
09:00 +24°C° 0 mm 1 mps 732 mmHg 68%
10:00 +25°C° 0 mm 1 mps 732 mmHg 62%
11:00 +27°C° 0 mm 1 mps 732 mmHg 57%
12:00 +27°C° 0.2 mm 1 mps 731 mmHg 55%
13:00 +28°C° 0.2 mm 1 mps 731 mmHg 53%
14:00 +29°C° 0.2 mm 1 mps 731 mmHg 52%
15:00 +29°C° 0.1 mm 1 mps 730 mmHg 52%
16:00 +29°C° 0.1 mm 1 mps 730 mmHg 52%
17:00 +28°C° 0.1 mm 1 mps 729 mmHg 52%
18:00 +27°C° 0.2 mm 1 mps 730 mmHg 59%
19:00 +25°C° 0.2 mm 1 mps 730 mmHg 65%
20:00 +23°C° 0.2 mm 1 mps 730 mmHg 72%
21:00 +22°C° 0 mm 1 mps 730 mmHg 72%
22:00 +22°C° 0 mm 1 mps 730 mmHg 73%
23:00 +21°C° 0 mm 1 mps 731 mmHg 74%

18 July, Saturday

Time Temperature Precipitation Wind Pressure Humidity
00:00 +21°C° 0.1 mm 1 mps 731 mmHg 77%
01:00 +19°C° 0.1 mm 2 mps 731 mmHg 80%
02:00 +19°C° 0.1 mm 2 mps 731 mmHg 83%
03:00 +18°C° 0.1 mm 2 mps 731 mmHg 86%
04:00 +19°C° 0.1 mm 1 mps 731 mmHg 89%
05:00 +19°C° 0.1 mm 1 mps 731 mmHg 93%
06:00 +19°C° 0.2 mm 1 mps 731 mmHg 92%
07:00 +20°C° 0.2 mm 1 mps 732 mmHg 91%
08:00 +19°C° 0.2 mm 2 mps 732 mmHg 90%
09:00 +20°C° 0.2 mm 2 mps 732 mmHg 88%
10:00 +20°C° 0.2 mm 2 mps 732 mmHg 85%
11:00 +21°C° 0.2 mm 2 mps 732 mmHg 83%
12:00 +21°C° 0.4 mm 2 mps 732 mmHg 83%
13:00 +21°C° 0.4 mm 2 mps 732 mmHg 83%
14:00 +21°C° 0.4 mm 3 mps 732 mmHg 83%
15:00 +21°C° 0.3 mm 3 mps 731 mmHg 83%
16:00 +21°C° 0.3 mm 3 mps 731 mmHg 84%
17:00 +21°C° 0.3 mm 3 mps 731 mmHg 85%
18:00 +20°C° 2.1 mm 2 mps 731 mmHg 89%
19:00 +19°C° 2.1 mm 2 mps 731 mmHg 93%
20:00 +18°C° 2.1 mm 2 mps 732 mmHg 97%
21:00 +19°C° 2 mm 1 mps 732 mmHg 97%
22:00 +19°C° 2 mm 1 mps 732 mmHg 97%
23:00 +19°C° 2 mm 1 mps 733 mmHg 97%

19 July, Sunday

Time Temperature Precipitation Wind Pressure Humidity
00:00 +19°C° 0.5 mm 1 mps 732 mmHg 97%
01:00 +18°C° 0.5 mm 1 mps 732 mmHg 97%
02:00 +16°C° 0.5 mm 0 mps 732 mmHg 97%
03:00 +18°C° 0.3 mm 1 mps 732 mmHg 97%
04:00 +18°C° 0.3 mm 1 mps 732 mmHg 97%
05:00 +18°C° 0.3 mm 1 mps 732 mmHg 97%
06:00 +18°C° 0 mm 1 mps 732 mmHg 95%
07:00 +19°C° 0 mm 1 mps 733 mmHg 92%
08:00 +19°C° 0 mm 1 mps 733 mmHg 90%
09:00 +20°C° 0 mm 1 mps 733 mmHg 85%
10:00 +22°C° 0 mm 1 mps 733 mmHg 79%
11:00 +23°C° 0 mm 1 mps 733 mmHg 74%
12:00 +24°C° 0.1 mm 1 mps 733 mmHg 70%
13:00 +25°C° 0.1 mm 1 mps 732 mmHg 67%
14:00 +26°C° 0.1 mm 1 mps 732 mmHg 64%
15:00 +26°C° 0.1 mm 1 mps 732 mmHg 63%
16:00 +26°C° 0.1 mm 2 mps 731 mmHg 63%
17:00 +26°C° 0.1 mm 2 mps 731 mmHg 62%
18:00 +24°C° 0.1 mm 2 mps 731 mmHg 68%
19:00 +23°C° 0.1 mm 1 mps 732 mmHg 74%
20:00 +21°C° 0.1 mm 1 mps 732 mmHg 79%
21:00 +20°C° 0 mm 1 mps 732 mmHg 81%
22:00 +20°C° 0 mm 1 mps 732 mmHg 82%
23:00 +19°C° 0 mm 1 mps 732 mmHg 84%

20 July, Monday

Time Temperature Precipitation Wind Pressure Humidity
00:00 +18°C° 0.1 mm 1 mps 732 mmHg 84%
01:00 +18°C° 0.1 mm 1 mps 732 mmHg 85%
02:00 +18°C° 0.1 mm 1 mps 732 mmHg 86%
03:00 +16°C° 0 mm 1 mps 732 mmHg 86%
04:00 +16°C° 0 mm 2 mps 732 mmHg 86%
05:00 +16°C° 0 mm 2 mps 732 mmHg 87%
06:00 +17°C° 0 mm 2 mps 732 mmHg 81%
07:00 +19°C° 0 mm 2 mps 732 mmHg 76%
08:00 +20°C° 0 mm 2 mps 733 mmHg 71%
09:00 +22°C° 0 mm 3 mps 733 mmHg 65%
10:00 +24°C° 0 mm 3 mps 733 mmHg 60%
11:00 +25°C° 0 mm 3 mps 733 mmHg 55%
12:00 +26°C° 0 mm 4 mps 733 mmHg 54%
13:00 +26°C° 0 mm 4 mps 732 mmHg 53%
14:00 +27°C° 0 mm 4 mps 732 mmHg 53%
15:00 +27°C° 0 mm 4 mps 732 mmHg 54%
16:00 +27°C° 0 mm 4 mps 732 mmHg 55%
17:00 +27°C° 0 mm 4 mps 732 mmHg 56%
18:00 +25°C° 0 mm 3 mps 732 mmHg 62%
19:00 +24°C° 0 mm 3 mps 732 mmHg 69%
20:00 +21°C° 0 mm 3 mps 732 mmHg 76%
21:00 +20°C° 0 mm 2 mps 732 mmHg 77%
22:00 +20°C° 0 mm 2 mps 733 mmHg 78%
23:00 +19°C° 0 mm 2 mps 733 mmHg 79%
Show more